FW5243 Weather Reports


Display with metric or nautical units.
time (UTC)temp
F
wind
direction
speed
MPH
gust
MPH
rain 1hr
in
rain 24hr
in
rain mn
in
humidity
%
barometer
mb
20260509200008 51 155 0.0 2.0 0.03 0.38 0.38 92 1011.5
20260509194506 51 168 1.0 4.0 0.01 0.36 0.36 92 1011.8
20260509193005 51 128 1.0 3.0 0.01 0.36 0.36 92 1011.9
20260509191505 51 142 2.0 8.0 0.01 0.36 0.36 92 1011.9
20260509190006 52 360 3.0 6.0 0.00 0.35 0.35 92 1012.0
20260509184502 52 175 2.0 7.0 0.00 0.35 0.35 92 1012.1
20260509183058 52 132 0.0 8.0 0.00 0.35 0.35 92 1012.1
20260509181608 51 176 1.0 5.0 0.03 0.35 0.35 92 1012.2
20260509180055 51 181 3.0 9.0 0.05 0.35 0.35 93 1012.0
20260509174555 51 94 2.0 7.0 0.06 0.35 0.35 95 1011.7
20260509173106 50 139 1.0 4.0 0.07 0.35 0.35 95 1011.8
20260509171603 50 134 1.0 8.0 0.04 0.32 0.32 95 1011.9
20260509170052 50 117 1.0 7.0 0.03 0.30 0.30 95 1012.0
20260509164550 50 130 1.0 10.0 0.03 0.34 0.28 95 1012.0
20260509163057 50 152 2.0 6.0 0.03 0.33 0.28 95 1012.2
20260509161546 50 145 3.0 11.0 0.03 0.33 0.28 95 1012.3
20260509160045 50 125 2.0 8.0 0.03 0.32 0.27 95 1012.4
20260509154544 50 122 0.0 4.0 0.02 0.35 0.26 95 1012.6
20260509153041 49 135 0.0 2.0 0.01 0.34 0.25 95 1012.7
20260509151537 49 109 0.0 2.0 0.02 0.34 0.25 96 1013.0
20260509150037 49 152 0.0 1.0 0.01 0.33 0.24 96 1013.2
20260509144532 48 119 0.0 1.0 0.02 0.33 0.24 95 1013.2
20260509143031 48 132 0.0 0.0 0.02 0.33 0.24 95 1013.3
20260509141531 48 117 0.0 0.0 0.01 0.32 0.23 95 1013.4
20260509140030 48 115 0.0 0.0 0.02 0.32 0.23 95 1013.3
20260509134528 48 121 0.0 0.0 0.01 0.31 0.22 95 1013.2
20260509133028 48 125 0.0 0.0 0.01 0.31 0.22 95 1013.1
20260509131531 47 125 0.0 0.0 0.02 0.31 0.22 95 1013.0
20260509130026 47 125 0.0 0.0 0.01 0.30 0.21 96 1013.1
20260509124524 47 125 0.0 0.0 0.01 0.30 0.21 95 1013.1
20260509123022 47 124 0.0 1.0 0.01 0.30 0.21 96 1013.3
20260509121525 47 144 0.0 1.0 0.00 0.28 0.20 96 1013.4
20260509120021 47 250 0.0 0.0 0.00 0.28 0.20 96 1013.3
20260509114520 47 252 0.0 0.0 0.00 0.28 0.20 96 1013.3
20260509113020 46 252 0.0 0.0 0.01 0.28 0.20 96 1013.4
20260509111519 46 146 0.0 0.0 0.01 0.28 0.20 96 1013.5
20260509110018 46 146 0.0 0.0 0.01 0.28 0.20 96 1013.5
20260509104518 46 146 0.0 0.0 0.02 0.28 0.20 95 1013.5
20260509103017 46 146 0.0 0.0 0.03 0.28 0.19 95 1013.6
20260509101517 46 146 0.0 1.0 0.04 0.28 0.19 95 1013.5
20260509100016 46 134 0.0 2.0 0.05 0.28 0.19 95 1013.5
20260509094515 46 141 0.0 0.0 0.04 0.27 0.18 95 1013.8
20260509093014 46 141 0.0 0.0 0.02 0.25 0.16 95 1013.6
20260509091523 46 141 0.0 0.0 0.02 0.24 0.15 95 1013.7
20260509090015 46 159 0.0 0.0 0.02 0.23 0.14 95 1013.8
20260509084519 46 149 0.0 0.0 0.04 0.23 0.14 95 1013.9
20260509083011 46 143 0.0 1.0 0.05 0.23 0.14 95 1013.8
20260509081510 46 211 0.0 0.0 0.05 0.22 0.13 95 1013.9
20260509080020 46 213 0.0 0.0 0.04 0.20 0.11 95 1014.0
20260509074507 46 213 0.0 0.0 0.05 0.19 0.10 94 1014.4
20260509073013 46 213 0.0 0.0 0.06 0.18 0.09 94 1014.3
20260509071505 46 213 0.0 0.0 0.06 0.17 0.08 94 1014.5
20260509070006 46 213 0.0 0.0 0.05 0.15 0.06 94 1014.6
20260509064503 46 214 0.0 0.0 0.04 0.14 0.05 94 1014.7
20260509063002 46 214 0.0 0.0 0.03 0.12 0.03 93 1014.8
20260509061501 46 216 0.0 4.0 0.02 0.11 0.02 93 1015.0
20260509054605 47 221 0.0 0.0 0.01 0.10 0.01 92 1014.7
20260509053058 47 221 0.0 0.0 0.00 0.09 0.00 91 1014.7
20260509051603 47 221 0.0 0.0 0.00 0.09 0.00 92 1014.8
20260509050055 46 221 0.0 0.0 0.00 0.09 0.00 90 1014.7
20260509044555 47 221 0.0 2.0 0.00 0.14 0.00 90 1014.6
20260509043056 47 220 0.0 0.0 0.00 0.14 0.00 90 1014.6
20260509041546 47 220 0.0 0.0 0.00 0.14 0.00 90 1014.9
20260509040054 46 220 0.0 2.0 0.00 0.14 0.00 91 1015.0
20260509034543 46 220 0.0 0.0 0.00 0.19 0.14 89 1015.0
20260509033042 46 220 0.0 2.0 0.00 0.19 0.14 89 1015.0
20260509031543 46 220 2.0 3.0 0.00 0.19 0.14 89 1015.0
20260509030044 46 219 1.0 4.0 0.00 0.19 0.14 88 1015.0
20260509024541 46 178 0.0 0.0 0.00 0.19 0.14 88 1014.9
20260509023042 47 178 0.0 3.0 0.00 0.19 0.14 87 1015.0
20260509021540 47 157 0.0 2.0 0.00 0.19 0.14 87 1014.9
20260509020040 48 157 1.0 3.0 0.00 0.19 0.14 86 1015.0
20260509014539 47 150 0.0 2.0 0.00 0.19 0.14 86 1014.9
20260509013047 48 150 0.0 2.0 0.00 0.19 0.14 86 1014.9
20260509011538 47 150 0.0 2.0 0.00 0.19 0.14 86 1014.7
20260509010040 47 150 1.0 2.0 0.00 0.19 0.14 86 1014.7
20260509004559 47 150 0.0 2.0 0.00 0.19 0.14 85 1014.4
20260509003043 47 150 0.0 2.0 0.00 0.19 0.14 84 1014.3
20260509001536 49 140 1.0 7.0 0.00 0.19 0.14 83 1014.2
20260509000036 48 146 1.0 7.0 0.00 0.19 0.14 81 1014.2
20260508234537 49 140 1.0 4.0 0.00 0.19 0.14 84 1014.1
20260508233036 49 173 2.0 5.0 0.00 0.19 0.14 84 1014.0
20260508231534 49 172 1.0 3.0 0.00 0.19 0.14 82 1013.7
20260508230049 50 360 0.0 1.0 0.00 0.19 0.14 79 1013.6
20260508224534 50 212 0.0 2.0 0.00 0.19 0.14 74 1013.7
20260508223033 51 212 0.0 3.0 0.00 0.19 0.14 72 1013.7
20260508221531 52 178 1.0 4.0 0.00 0.19 0.14 73 1013.7
20260508220031 52 184 2.0 6.0 0.00 0.19 0.14 76 1013.9
20260508214531 53 150 2.0 4.0 0.00 0.19 0.14 75 1013.8
20260508213031 54 157 3.0 6.0 0.00 0.19 0.14 71 1013.7
20260508211532 52 176 1.0 6.0 0.00 0.19 0.14 67 1014.1
20260508210035 52 103 2.0 4.0 0.00 0.19 0.14 66 1014.0
20260508204528 52 22 0.0 2.0 0.00 0.19 0.14 68 1013.9
20260508203027 53 20 0.0 4.0 0.00 0.19 0.14 68 1013.9
20260508201527 54 355 2.0 7.0 0.00 0.19 0.14 66 1014.0